Regional Weather Roundup
Issued by NWS

Home | Current Version | Previous Version | Graphics & Text | Print | Product List | Glossary On
Versions: 1 2 3 4 5 6 7 8 9 10 11 12 13 14 15 16 17 18 19 20 21 22 23 24 25 26 27 28 29 30 31 32 33 34 35 36 37 38 39 40 41 42 43 44 45 46 47 48 49 50
000
ASUS44 KMEG 010310
RWRTN
TENNESSEE HOURLY STATE WEATHER ROUNDUP
NATIONAL WEATHER SERVICE MEMPHIS TN
900 PM CST SAT JAN 31 2015

TNZ002-004-019-021-049-052-054-088>092-010400-
WEST TENNESSEE

CITY           SKY/WX    TMP DP  RH WIND       PRES   REMARKS
MEMPHIS INTL   CLOUDY    46  25  43 SE5       30.14F
NWS MEMPHIS      N/A     44 N/A N/A MISG        N/A
JACKSON        CLOUDY    44  21  40 SE5       30.16F
DYERSBURG      CLOUDY    45  18  33 SE15      30.14F
UNION CITY     PTCLDY    41  21  45 E9        30.11F
PARIS          MOCLDY    41  18  38 SE13      30.15F
LEXINGTON      PTCLDY    45  16  31 E5        30.17F
SAVANNAH       PTCLDY    46  18  31 SE3       30.18F
$$

TNZ008-025-027-028-033-062-065-066-010400-
NORTH MIDDLE TENNESSEE

CITY           SKY/WX    TMP DP  RH WIND       PRES   REMARKS
NASHVILLE      CLOUDY    42  21  43 E3        30.23F
CLARKSVILLE    CLOUDY    41  21  44 S3        30.22S
SMYRNA         CLOUDY    40  24  53 CALM      30.25F
COOKEVILLE     CLEAR     39  19  45 SE5       30.23F
CROSSVILLE     CLOUDY    38  16  40 SW3       30.24F
$$

TNZ061-075-076-078-094-096-097-010400-
SOUTH MIDDLE TENNESSEE

CITY           SKY/WX    TMP DP  RH WIND       PRES   REMARKS
FAYETTEVILLE   PTCLDY    43  18  36 MISG      30.22F
TULLAHOMA      MOCLDY    43  12  28 SE6       30.21F
WINCHESTER     PTCLDY    43  18  36 E6        30.24F
MCMINNVILLE    PTCLDY    39  25  56 CALM      30.24S
COLUMBIA       CLOUDY    43  25  49 E3        30.20F
SHELBYVILLE    MOCLDY    43  23  45 SE5       30.25S
$$

TNZ017-018-042-046-047-010400-
NORTHEAST TENNESSEE

CITY           SKY/WX    TMP DP  RH WIND       PRES   REMARKS
TRI CITIES     CLOUDY    35  20  54 CALM      30.28F
ELIZABETHTON   CLEAR     30  18  59 CALM      30.27F
$$

TNZ012-013-036-069-073-074-010400-
CENTRAL EAST TENNESSEE

CITY           SKY/WX    TMP DP  RH WIND       PRES   REMARKS
KNOXVILLE      CLOUDY    39  20  46 CALM      30.27F
OAK RIDGE      CLOUDY    40  21  46 CALM      30.28F
GATLINBURG     MOCLDY    36  21  55 CALM      30.26F
MORRISTOWN     CLEAR     37  18  44 CALM      30.27F
$$

TNZ083-085-099-010400-
SOUTHEAST TENNESSEE

CITY           SKY/WX    TMP DP  RH WIND       PRES   REMARKS
CHATTANOOGA    CLOUDY    42  25  50 CALM      30.29F
$$

SKY/WX REPORTED AS FAIR MEANS FEW OR NO CLOUDS BELOW
12 THOUSAND FEET.



USA.gov is the U.S. government's official web portal to all federal, state and local government web resources and services.